Погода в Шестовом

Россия / Тюменская область     57°26′49″N   68°15′15″E
темп.,
°C
ветер,
м/с
пор.,
м/с
влажн.,
%
обл.,
%
осадки,
мм/ч
давл.,
гПа
погр.,
м
13 мая, чт
чт1323:00+14сз2550100 0.0 1024129
02:00+12з2262100 0.0 102419
05:00+12юз2106795 0.0 1022294
08:00+18зсз5115159 0.0 1021577
11:00+23сз5940100 0.0 10201977
14:00+23ссз5941100 0.0 10201697
17:00+20с4952100 0.0 1022916
20:00+19ссв384721 0.0 1023253
14 мая, пт
пт1423:00+13ссв22515 0.0 102520
02:00+11в22635 0.0 102624
05:00+10юв23715 0.0 102770
08:00+17ю24465 0.0 1027387
11:00+23юз35335 0.0 10251024
14:00+27зюз583225 0.0 10222901
17:00+29з492519 0.0 10213225
20:00+23зюз224163 0.0 102025
15 мая, сб
сб1523:00+19зюз38535 0.0 1019121
02:00+17зюз38545 0.0 1019134
05:00+16зюз39555 0.0 1019166
08:00+23з49416 0.0 1019438
11:00+28з611295 0.0 10172410
14:00+29зсз61130100 0.0 10172788
17:00+29зсз37286 0.0 10142612
20:00+17ю3680100 4.8 1016155
16 мая, вс
вс1623:00+16з2483100 5.3 1017132
02:00+14з27978 0.0 1018210
05:00+14зсз27955 0.0 1019174
08:00+20сз23625 0.0 1020378
11:00+25зюз343951 0.0 10191175
14:00+28зюз463361 0.0 10182104
17:00+29з483071 0.0 10162392
20:00+24зюз234581 0.0 101539
17 мая, пн
пн1723:00+20зюз384897 0.0 1015114
02:00+18зюз3115429 0.0 1015179
05:00+17зюз3105810 0.0 1015180
08:00+24зюз49425 0.0 1014441
11:00+29з610285 0.0 10132839
14:00+30з5102251 0.0 10123970
17:00+23ююз234356 0.0 101184
20:00+23ссз6124596 0.1 1011872